Stations météo

Publicité
Socoa, France (7600): Température de l'air & dewpoint: 14.06.2018 09:00:00 - 20.06.2018 09:00:00 (CEST)Socoa, France (7600): Vitesse du vent & gusts: 14.06.2018 09:00:00 - 20.06.2018 09:00:00 (CEST)Socoa, France (7600): Direction du vent: 14.06.2018 09:00:00 - 20.06.2018 09:00:00 (CEST)Socoa, France (7600): reduced air pressure: 14.06.2018 09:00:00 - 20.06.2018 09:00:00 (CEST)Socoa, France (7600): visibility: 14.06.2018 09:00:00 - 20.06.2018 09:00:00 (CEST)Socoa, France (7600): Quantités de précipitations: 14.06.2018 09:00:00 - 20.06.2018 09:00:00 (CEST)
Date & Time tt [°C] td [°C] ff [km/h] ff [knt] fx [km/h] fx [knt] dd ppp [hPa] vv [km] rr [mm]
20.06.2018 09:00:00 - - - - - - - - - -
20.06.2018 08:00:00 16,8 15,8 6 3 10 5 S 1018,8 15 0,0
20.06.2018 07:00:00 15,2 14,1 6 3 9 5 S 1018,8 - 0,0
20.06.2018 06:00:00 15,2 13,9 5 3 10 5 SSW 1018,7 - 0,0
20.06.2018 05:00:00 15,6 14,5 8 4 10 6 S 1018,8 20 0,0
20.06.2018 04:00:00 15,8 14,3 0 0 10 5 N 1019,1 - 0,2
20.06.2018 03:00:00 16,4 15,1 5 3 8 4 S 1019,5 - 0,0
20.06.2018 02:00:00 16,8 15,1 7 4 9 5 S 1020,2 - 0,0
20.06.2018 01:00:00 17,4 15,6 6 4 13 7 WSW 1020,7 - 0,0
20.06.2018 00:00:00 18,2 16,2 9 5 13 7 SW 1020,9 - 0,0
19.06.2018 23:00:00 18,8 16,6 10 5 16 9 SW 1020,9 20 0,0
19.06.2018 22:00:00 19,7 16,7 11 6 13 7 WSW 1020,8 - 0,0
19.06.2018 21:00:00 21,8 17,0 6 3 10 5 W 1020,9 - 0,0
19.06.2018 20:00:00 22,9 17,4 5 3 9 5 N 1021,3 22 0,0
19.06.2018 19:00:00 23,3 17,1 6 3 16 9 N 1021,7 - 0,0
19.06.2018 18:00:00 22,8 17,0 12 6 22 12 N 1022,3 - 0,0
19.06.2018 17:00:00 21,9 16,4 16 9 22 12 N 1022,7 25 0,0
19.06.2018 16:00:00 22,3 16,8 15 8 22 12 N 1023,1 - 0,0
19.06.2018 15:00:00 21,3 15,8 14 7 26 14 N 1023,6 - 0,0
19.06.2018 14:00:00 21,1 16,3 20 11 31 17 N 1023,8 20 0,0
19.06.2018 13:00:00 20,2 15,4 23 12 27 15 N 1024,2 - 0,0
19.06.2018 12:00:00 21,0 16,2 11 6 17 9 N 1024,5 - 0,0
19.06.2018 11:00:00 19,9 15,3 11 6 21 11 NE 1025,0 12 0,0
19.06.2018 10:00:00 18,7 15,2 8 4 16 9 ENE 1025,4 - 0,0
19.06.2018 09:00:00 17,9 15,0 7 4 11 6 ESE 1025,7 - 0,0
19.06.2018 08:00:00 17,3 15,1 4 2 11 6 S 1025,8 - 0,0
19.06.2018 07:00:00 17,1 14,9 9 5 19 10 SE 1025,8 - 0,0
19.06.2018 06:00:00 17,1 14,6 5 3 11 6 SSE 1025,6 - 0,0
19.06.2018 05:00:00 17,3 14,4 9 5 11 6 S 1025,8 20 0,0
19.06.2018 04:00:00 18,1 14,6 5 3 16 9 W 1026,1 - 0,0
19.06.2018 03:00:00 18,2 13,9 13 7 21 12 NW 1026,2 - 0,0
19.06.2018 02:00:00 18,3 14,2 13 7 23 12 NW 1026,6 - 0,0
19.06.2018 01:00:00 18,4 14,1 16 9 26 14 NW 1026,7 - 0,0
19.06.2018 00:00:00 18,3 14,8 19 11 26 14 NW 1027,0 - 0,0
18.06.2018 23:00:00 18,5 16,3 13 7 18 10 WNW 1027,2 11 0,0
18.06.2018 22:00:00 18,5 16,1 8 5 17 9 WNW 1026,9 - 0,0
18.06.2018 21:00:00 18,8 16,2 11 6 17 9 NW 1026,7 - 0,0
18.06.2018 20:00:00 19,2 16,6 12 6 27 14 NNW 1026,9 15 0,0
18.06.2018 19:00:00 19,4 16,8 21 11 28 15 NNW 1026,9 - 0,0
18.06.2018 18:00:00 21,3 16,7 16 9 24 13 NW 1027,1 - 0,0
18.06.2018 17:00:00 21,8 17,2 16 9 22 12 W 1027,2 20 0,0
18.06.2018 16:00:00 19,4 16,8 16 9 26 14 W 1027,3 - 0,0
18.06.2018 15:00:00 21,2 16,8 19 10 25 14 W 1027,4 - 0,0
18.06.2018 14:00:00 21,5 16,2 15 8 22 12 W 1027,5 20 0,0
18.06.2018 13:00:00 19,4 16,1 11 6 18 10 W 1027,8 - 0,0
18.06.2018 12:00:00 18,9 15,8 7 4 11 6 W 1027,8 - 0,0
18.06.2018 11:00:00 16,9 14,7 7 4 19 10 S 1028,0 4,8 0,0
18.06.2018 10:00:00 17,4 13,1 10 5 15 8 SW 1027,9 - 0,0
18.06.2018 09:00:00 17,2 13,3 10 5 16 8 SW 1027,7 - 0,0
18.06.2018 08:00:00 16,4 13,1 7 4 12 7 SSW 1027,3 15 0,0
18.06.2018 07:00:00 15,5 13,0 10 6 14 7 S 1027,0 - 0,0
18.06.2018 06:00:00 15,4 12,9 9 5 13 7 S 1026,8 - 0,0
18.06.2018 05:00:00 15,2 12,7 9 5 15 8 S 1026,8 20 0,0
18.06.2018 04:00:00 14,5 12,4 13 7 15 8 S 1026,9 - 0,0
18.06.2018 03:00:00 14,1 12,3 8 4 13 7 SSW 1027,1 - 0,0
18.06.2018 02:00:00 14,2 12,2 11 6 16 8 S 1027,1 - 0,0
18.06.2018 01:00:00 14,6 12,3 10 5 13 7 SSW 1027,2 - 0,0
18.06.2018 00:00:00 15,4 12,5 8 4 13 7 SSW 1027,7 - 0,0
17.06.2018 23:00:00 16,8 12,7 5 3 14 7 SW 1027,2 25 0,0
17.06.2018 22:00:00 17,7 12,6 9 5 14 8 WNW 1026,8 - 0,0
17.06.2018 21:00:00 19,5 13,0 9 5 16 9 WNW 1026,6 - 0,0
17.06.2018 20:00:00 20,5 13,0 11 6 18 10 WNW 1026,5 25 0,0
17.06.2018 19:00:00 20,9 13,8 16 8 29 16 WNW 1026,4 - 0,0
17.06.2018 18:00:00 21,5 14,4 13 7 24 13 WNW 1026,1 - 0,0
17.06.2018 17:00:00 21,5 13,7 17 9 23 12 NW 1026,0 25 0,0
17.06.2018 16:00:00 21,3 14,9 16 8 28 15 NW 1026,0 - 0,0
17.06.2018 15:00:00 21,2 15,3 22 12 28 15 NW 1025,9 - 0,0
17.06.2018 14:00:00 21,2 15,7 20 11 27 15 W 1025,9 - 0,0
17.06.2018 13:00:00 21,3 15,8 15 8 20 11 W 1025,8 - 0,0
17.06.2018 12:00:00 20,7 15,3 8 4 15 8 W 1025,7 - 0,0
17.06.2018 11:00:00 19,5 15,6 9 5 16 9 W 1025,7 18 0,0
17.06.2018 10:00:00 17,1 14,7 9 5 15 8 WSW 1025,8 - 0,0
17.06.2018 09:00:00 16,4 14,9 8 4 16 9 WSW 1025,4 - 0,2
17.06.2018 08:00:00 15,6 14,3 10 6 21 11 WSW 1024,8 2,0 1,2
17.06.2018 07:00:00 15,6 13,4 13 7 23 12 SW 1024,2 - 0,0
17.06.2018 06:00:00 15,1 13,0 3 2 12 7 ESE 1023,8 - 0,0
17.06.2018 05:00:00 14,6 12,6 9 5 13 7 SSW 1023,6 20 0,0
17.06.2018 04:00:00 14,4 12,4 11 6 13 7 SSW 1023,7 - 0,0
17.06.2018 03:00:00 14,0 12,0 11 6 13 7 SSW 1023,7 - 0,0
17.06.2018 02:00:00 14,5 12,2 9 5 13 7 SSW 1023,9 - 0,0
17.06.2018 01:00:00 15,5 12,1 9 5 13 7 SSW 1024,0 - 0,0
17.06.2018 00:00:00 16,5 12,3 9 5 11 6 SSW 1024,0 - 0,0
16.06.2018 23:00:00 17,8 12,0 9 5 14 7 WNW 1023,9 - 0,0
16.06.2018 22:00:00 18,0 11,8 10 5 17 9 NW 1023,1 - 0,0
16.06.2018 21:00:00 19,2 12,0 6 3 14 7 WNW 1022,6 - 0,0
16.06.2018 20:00:00 20,6 11,8 10 5 19 10 NNW 1022,5 30 0,0
16.06.2018 19:00:00 20,7 12,1 12 6 18 10 NNW 1021,9 - -
16.06.2018 18:00:00 21,6 11,9 11 6 16 9 NNW 1021,6 - 0,0
16.06.2018 17:00:00 21,9 11,9 8 4 13 7 NNW 1021,4 20 0,0
16.06.2018 16:00:00 21,7 12,3 11 6 18 10 NW 1021,7 - 0,0
16.06.2018 15:00:00 21,9 14,0 7 4 14 7 NW 1021,6 - 0,0
16.06.2018 14:00:00 21,4 14,1 9 5 17 9 NNW 1021,7 - 0,0
16.06.2018 13:00:00 20,7 12,7 4 2 13 7 ENE 1021,8 - 0,0
16.06.2018 12:00:00 18,5 12,3 10 5 22 12 NNW 1021,7 - 0,0
16.06.2018 11:00:00 17,7 11,9 9 5 27 15 N 1021,4 - 0,0
16.06.2018 10:00:00 17,4 12,7 17 9 34 19 NNW 1020,9 - 0,0
16.06.2018 09:00:00 17,1 13,4 24 13 32 17 N 1020,2 - 0,0
16.06.2018 08:00:00 17,5 14,0 14 8 22 12 NNW 1019,7 15 0,0
16.06.2018 07:00:00 17,4 14,1 14 8 24 13 NNW 1019,6 - 0,0
16.06.2018 06:00:00 17,3 14,2 16 9 24 13 NNW 1019,6 - 0,0
16.06.2018 05:00:00 17,3 14,4 17 9 23 12 NNW 1019,5 15 0,0
16.06.2018 04:00:00 17,3 14,9 12 7 21 11 NW 1019,6 - 0,0
16.06.2018 03:00:00 17,2 15,2 15 8 21 11 NW 1020,0 - 0,0
16.06.2018 02:00:00 17,1 16,0 8 4 11 6 WSW 1020,4 - 0,0
16.06.2018 01:00:00 17,3 16,0 3 2 10 5 SSW 1020,5 - 0,0
16.06.2018 00:00:00 17,3 16,0 6 4 21 11 NNE 1020,6 - 0,0
15.06.2018 23:00:00 17,4 16,3 13 7 20 11 NW 1020,6 - 0,4
15.06.2018 22:00:00 17,6 16,5 8 4 11 6 W 1020,4 - 0,0
15.06.2018 21:00:00 17,7 16,6 9 5 15 8 WSW 1020,3 - 0,0
15.06.2018 20:00:00 17,6 16,5 12 7 19 10 W 1020,3 - 0,4
15.06.2018 19:00:00 17,9 16,6 11 6 15 8 W 1020,3 - 0,4
15.06.2018 18:00:00 17,6 16,1 8 4 14 7 WSW 1020,3 - 0,6
15.06.2018 17:00:00 17,3 15,5 10 5 22 12 WSW 1020,6 0,9 0,2
15.06.2018 16:00:00 17,9 15,2 15 8 25 13 W 1020,9 - 0,2
15.06.2018 15:00:00 19,0 14,3 16 9 26 14 WNW 1020,4 - 0,0
15.06.2018 14:00:00 19,7 14,1 16 8 24 13 WNW 1020,2 - 0,0
15.06.2018 13:00:00 19,0 13,4 20 11 25 14 W 1020,2 - 0,0
15.06.2018 12:00:00 19,2 13,6 10 6 14 8 W 1020,2 - 0,0
15.06.2018 11:00:00 18,9 13,5 6 4 11 6 W 1020,2 20 0,0
15.06.2018 10:00:00 16,8 13,5 5 3 10 5 SSW 1020,2 - 0,0
15.06.2018 09:00:00 14,7 12,9 9 5 12 6 S 1020,2 - 0,0
15.06.2018 08:00:00 13,3 12,0 9 5 16 9 S 1020,0 20 0,0
15.06.2018 07:00:00 12,3 11,0 11 6 13 7 S 1019,7 - 0,0
15.06.2018 06:00:00 12,4 11,0 8 5 11 6 S 1019,6 - 0,0
15.06.2018 05:00:00 12,8 11,2 10 5 16 9 S 1019,5 20 0,0
15.06.2018 04:00:00 13,0 11,4 9 5 13 7 S 1020,0 - 0,0
15.06.2018 03:00:00 13,4 11,8 10 5 12 7 S 1020,3 - 0,0
15.06.2018 02:00:00 13,4 11,8 6 3 11 6 S 1020,7 - 0,0
15.06.2018 01:00:00 13,8 11,8 9 5 13 7 S 1020,8 - 0,0
15.06.2018 00:00:00 14,7 12,6 7 4 10 6 S 1020,9 - 0,0
14.06.2018 23:00:00 15,6 12,9 8 4 10 5 S 1021,0 25 0,0
14.06.2018 22:00:00 17,1 12,6 0 0 7 4 N 1020,8 - 0,0
14.06.2018 21:00:00 18,9 12,9 3 1 14 7 N 1020,7 - 0,0
14.06.2018 20:00:00 20,3 12,8 8 4 17 9 WNW 1020,9 25 0,0
14.06.2018 19:00:00 20,8 14,0 12 7 25 14 WNW 1020,7 - 0,0
14.06.2018 18:00:00 20,3 13,0 18 10 27 14 WNW 1020,9 - 0,0
14.06.2018 17:00:00 19,8 13,9 18 10 27 15 WNW 1021,2 - 0,0
14.06.2018 16:00:00 21,3 14,2 16 9 27 15 WNW 1021,3 - 0,0
14.06.2018 15:00:00 20,5 13,9 18 10 27 14 WNW 1021,5 - 0,0
14.06.2018 14:00:00 20,2 13,6 19 11 30 16 WNW 1021,8 - 0,0
14.06.2018 13:00:00 18,9 13,3 22 12 32 17 NW 1021,7 - 0,0
14.06.2018 12:00:00 18,9 14,0 22 12 32 18 WNW 1021,5 - 0,0
14.06.2018 11:00:00 17,8 13,5 18 10 26 14 WNW 1021,3 20 0,0
14.06.2018 10:00:00 17,9 13,4 16 9 25 14 WNW 1021,2 - 0,0
14.06.2018 09:00:00 17,2 13,1 18 10 27 14 WNW 1021,1 - 0,0

tt = Température de l'air
td = dewpoint
ff = Vitesse du vent
fx = gusts
dd = Direction du vent
ppp = reduced air pressure
vv = visibility
rr = Quantités de précipitations

stations d'obs. à proximité